Location: Casilda
(33.0440°S, 61.1680°W)
Time: 17:38:52
(UTC-03:00)

ISS - Visible Passes

Search period start: 03 October 2023 00:00
Search period end: 13 October 2023 00:00
Orbit: 414 x 421 km, 51.6° (Epoch: 03 October)

Date Brightness Start Highest point End Pass type
(mag) Time Alt. Az. Time Alt. Az. Time Alt. Az.
05 Oct -0.4 05:48:44 10° SSE 05:48:56 10° SSE 05:49:08 10° SSE visible
07 Oct -1.2 05:46:50 10° SSW 05:49:35 22° SE 05:52:19 10° E visible
08 Oct -0.7 04:59:08 10° S 05:01:06 14° SSE 05:03:02 10° ESE visible
09 Oct -3.3 05:46:24 10° SW 05:49:49 64° SE 05:53:11 10° NE visible
10 Oct -2.0 04:58:17 10° SSW 05:01:22 34° SE 05:04:30 10° ENE visible
11 Oct -1.2 04:12:51 21° SE 04:12:51 21° SE 04:15:27 10° E visible
11 Oct -3.0 05:46:30 10° WSW 05:49:37 33° NW 05:52:42 10° NNE visible
11 Oct -2.5 20:48:58 10° NW 20:50:52 30° NNW 20:50:52 30° NNW visible
12 Oct -3.9 05:00:47 60° W 05:01:14 70° NW 05:04:35 10° NE visible
12 Oct -2.9 20:00:54 10° NNW 20:03:54 29° NE 20:06:21 13° ESE visible
12 Oct -0.9 21:37:53 10° W 21:39:23 18° WSW 21:39:23 18° WSW visible
